Regional Weather Roundup
Issued by NWS New Orleans/Baton Rouge, LA

Home | Current Version | Previous Version | Graphics & Text | Print | Product List | Glossary On
Versions: 1 2 3 4 5 6 7 8 9 10 11 12 13 14 15 16 17 18 19 20 21 22 23 24 25 26 27 28 29 30 31 32 33 34 35 36 37 38 39 40 41 42 43 44 45 46 47 48 49 50
971
ASUS44 KLIX 242101
RWRLIX
NEW ORLEANS REGIONAL WEATHER ROUNDUP
NATIONAL WEATHER SERVICE NEW ORLEANS LA
400 PM CDT THU JUL 24 2014

NOTE: "FAIR" INDICATES FEW OR NO CLOUDS BELOW 12,000 FEET WITH NO
      SIGNIFICANT WEATHER AND/OR OBSTRUCTIONS TO VISIBILITY.
      SKY/WX - SKY CONDITION AND SIGNIFICANT WEATHER.
      TMP - AIR TEMPERATURE.     DP    - DEWPOINT TEMPERATURE.
      RH  - RELATIVE HUMIDITY.   PRES  - PRESSURE.
      HI  - HEAT INDEX.          WCI   - WIND CHILL INDEX.

*  THESE STATIONS ARE NOT NWS OR FAA STATIONS AND ARE NOT UNDER
   NWS QUALITY CONTROL.

LAZ038-040-048-061>063-065>067-069-242200-
SOUTHEAST LOUISIANA

CITY           SKY/WX    TMP DP  RH WIND       PRES   REMARKS
N.O. AUDUBON   NOT AVBL
N.O. INTL ARPT PTSUNNY   86  74  67 S3        29.96F
N.O. LAKEFRONT PTSUNNY   86  69  56 NW3       29.97F
N.O. DOWNTOWN* MOCLDY    81  72  74 S6        29.97F
SLIDELL        LGT RAIN  80  74  81 W5        29.95F
BATON ROUGE    RAIN      79  75  87 NE6       29.96F
BOOTHVILLE     SUNNY     84  72  67 SW8       29.97F
BELLE CHASSE   CLOUDY    80  73  79 SE3       29.97S THUNDER
BOGALUSA*        N/A     92  66  43 CALM      29.97F
GALLIANO*      NOT AVBL
NEW ROADS*       N/A     89  74  60 N6        29.96F HX  97
GONZALES*        N/A     91  71  51 NW5       29.95F HX  96
HAMMOND*       MOSUNNY   93  66  40 NE3       29.97F HX  96
HOUMA*         MOSUNNY   91  68  46 W6        29.95F HX  95
PORT FOURCHON* CLEAR     86  77  74 W10G16    29.98F HX  97

$$

MSZ070-080>082-242200-
SOUTHERN MISSISSIPPI

CITY           SKY/WX    TMP DP  RH WIND       PRES   REMARKS
MCCOMB         PTSUNNY   90  70  51 S3        29.96F HX  95
GULFPORT       MOSUNNY   88  73  61 S7        29.96F HX  95
BILOXI         MOSUNNY   86  74  66 S10       29.97F
PASCAGOULA     MOSUNNY   86  72  62 VRB6      29.97F
STENNIS ARPT*  MOSUNNY  N/A N/A N/A SE5       29.96F

$$

COASTAL OBSERVATIONS
LAKE AND NEARSHORE STATIONS

STATION/POSITION TIME  TEMP    WIND        PRES    WAVE
                       AIR SEA DIR/SP/G            HT/PER
                 (UTC) (F)     (DEG/KT/KT) (MB)    (FT/S)
PASCAGOULA       2018   84     190/  9/ 11 1014.9
WAVELAND YACHT   2018   82     150/  7/  9 1014.5
GRAND ISLE       2018   83 84  260/ 10/ 13 1015.8
SOUTHWEST PASS   2018   87 85  280/  7/ 10 1016.0
NEW CANAL        2018   85 83   10/  5/  7 1015.4
SHELL BEACH      2018   85 80  230/  3/  7 1014.8

OFFSHORE STATIONS

STATION/POSITION TIME  TEMP    WIND        PRES    WAVE
                       AIR SEA DIR/SP/G            HT/PER
                 (UTC) (F)     (DEG/KT/KT) (MB)    (FT/S)
64 S DAUPHIN ISL 2048   84 86  230/  8/ 10 1015.5

$$




USA.gov is the U.S. government's official web portal to all federal, state and local government web resources and services.